Flag for U.S.A. Weather past 2 weeks in New York, New York, U.S.A.

Now
64 °F

Overcast.


Feels Like: 64 °F
Forecast: 60 / 69 °F
Wind: 9 mph from Northeast

Location: New York City - Central Park

Current Time: Oct 1, 2014 at 9:01:03 PM

Latest Report: Oct 1, 2014 at 7:51 PM


Visibility: 10 mi

Pressure: 30.06 "Hg

Humidity: 75%

Dew point: 56 °F

Location of New YorkLocation

Historic Weather in New York — Graph

°F

New York temperature yesterday

Maximum temperature yesterday: 70 °F (at 12:51 AM)
Minimum temperature yesterday: 64 °F (at 11:51 PM)
Average temperature yesterday: 68 °F

Past Weeks' High & Low Weather Summary

 TemperatureHumidityPressure
High83 °F (Sep 27, 2:51 PM)93% (Sep 21, 5:51 AM)30.56 "Hg (Sep 21, 5:51 AM)
Low52 °F (Sep 23, 5:51 AM)31% (Sep 18, 5:51 PM)29.61 "Hg (Sep 21, 6:51 PM)
Average66 °F64%30.11 "Hg
* Reported Sep 16 7:51 PM — Oct 1 7:51 PM, New York, Weather by CustomWeather, © 2014

Note: Actual official high and low records may vary slightly from our data, if they occured in-between our weather recording intervals... More about our weather records

Advertising

New York weather history for previous 24 hours

 ConditionsComfort  
Time TempWeatherWind HumidityBarometerVisibility
7:51 PM
Oct 1
64 °FOvercast.9 mph75%30.06 "Hg10 mi
6:51 PM64 °FOvercast.6 mph78%30.04 "Hg10 mi
5:51 PM63 °FMostly cloudy.6 mph84%30.03 "Hg10 mi
4:58 PM63 °FLight rain. Fog.3 mph90%30.06 "Hg3 mi
4:47 PM63 °FLight rain. Fog.7 mph87%30.03 "Hg2 mi
3:51 PM63 °FFog.7 mph87%30.03 "Hg3 mi
2:51 PM64 °FMostly cloudy.7 mph81%30.03 "Hg10 mi
1:51 PM63 °FMostly cloudy.7 mph84%30.03 "Hg10 mi
1:01 PM63 °FMostly cloudy.8 mph84%30.07 "Hg5 mi
11:51 AM63 °FOvercast.6 mph81%30.05 "Hg8 mi
10:51 AM63 °FOvercast.5 mph81%30.05 "Hg10 mi
9:51 AM61 °FFog.5 mph87%30.04 "Hg5 mi
8:51 AM61 °FOvercast.6 mph87%30.02 "Hg9 mi
7:51 AM62 °FLow clouds.7 mph83%30.02 "Hg5 mi
6:51 AM63 °FOvercast.5 mph75%30.01 "Hg10 mi
6:04 AM63 °FOvercast.No wind78%30.02 "Hg10 mi
5:51 AM63 °FOvercast.6 mph78%29.99 "Hg10 mi
4:51 AM63 °FOvercast.7 mph75%29.99 "Hg10 mi
3:51 AM63 °FOvercast.5 mph78%29.98 "Hg10 mi
2:51 AM63 °FMostly cloudy.3 mph81%29.98 "Hg10 mi
2:02 AM63 °FMostly cloudy.3 mph81%30.02 "Hg10 mi
1:51 AM62 °FMostly cloudy.5 mph83%29.99 "Hg10 mi
1:02 AM62 °FLow clouds.6 mph83%30.01 "Hg9 mi
11:51 PM
Sep 30
64 °FLight rain. Mostly cloudy.7 mph78%29.99 "Hg6 mi
10:51 PM65 °FMostly cloudy.5 mph76%29.99 "Hg10 mi
9:51 PM65 °FMostly cloudy.5 mph76%29.98 "Hg10 mi
Weather by CustomWeather, © 2014

See weather overviewHow to use our weather pages